Wind_Speed
100 98 96 94 93 93 94 96 97 96 95 95 95 94 94 93 92 90 89 88 87 86 85 83 82 81 80 78 75 73 70 67 60 54 53 51 48 46 45 44 42 42 41 40 41 41 41 40 40 40 39 39
100 98 97 95 93 93 94 95 96 96 95 95 95 95 94 93 92 91 89 88 87 86 84 82 81 80 78 76 74 71 68 65 57 51 51 50 47 46 45 44 43 42 41 41 41 41 41 41 41 41 40 39
101 99 98 96 94 93 93 94 95 95 94 95 95 94 94 93 92 90 89 87 86 85 83 81 79 78 76 73 71 69 66 62 56 50 49 49 47 46 45 44 43 42 42 41 41 42 41 42 42 41 41 40
100 100 99 97 95 94 93 93 94 93 93 93 93 93 93 92 91 89 88 86 85 83 81 79 77 75 73 71 69 67 63 60 55 49 47 48 46 46 45 44 43 43 42 41 41 42 42 42 42 42 42 41
100 101 100 98 96 94 93 93 93 93 92 91 91 91 91 90 89 88 86 84 83 81 79 77 75 73 71 69 66 64 61 58 55 49 46 47 47 46 45 44 44 43 42 41 41 42 42 42 43 42 43 42
100 102 101 98 96 95 93 93 93 93 92 90 90 90 89 89 87 85 84 82 81 79 77 75 72 71 69 67 65 62 60 57 55 50 46 46 47 46 46 45 45 44 43 42 41 42 42 43 43 43 43 43
101 101 99 97 96 96 94 93 94 93 92 90 89 89 88 87 85 83 82 80 79 77 75 73 71 69 67 65 63 61 59 57 55 51 47 45 46 47 46 46 45 45 44 43 42 42 43 43 43 43 43 43
100 99 97 96 96 96 94 94 94 93 92 91 89 88 87 86 84 82 80 79 77 75 73 72 69 68 66 64 62 60 58 57 55 53 49 46 46 47 47 46 46 45 44 43 43 43 43 44 43 44 44 44
96 95 95 95 96 95 95 94 94 93 92 91 90 89 87 86 84 82 80 78 76 74 72 70 68 67 65 63 61 60 58 57 56 53 52 48 46 47 47 47 46 46 45 45 44 44 44 44 44 45 45 45
93 91 92 94 95 94 95 94 94 93 93 92 90 89 88 86 84 81 79 78 76 74 72 70 68 66 65 63 61 60 58 58 56 54 53 51 48 47 47 48 47 47 46 46 45 45 45 45 46 46 46 46
91 89 90 92 94 95 95 95 94 93 93 92 91 89 88 86 84 82 80 78 76 74 72 70 68 66 64 63 61 60 58 58 57 56 55 53 51 48 47 48 48 47 47 47 46 46 46 46 47 47 47 47
90 87 90 93 94 95 95 95 94 94 94 93 91 90 88 87 85 82 80 78 76 74 72 70 68 66 64 63 61 60 59 58 58 57 56 56 54 51 49 48 49 49 48 48 47 47 47 47 48 48 48 48
90 89 91 93 94 95 95 95 95 94 94 93 92 91 89 88 86 83 81 79 77 75 73 71 69 67 65 64 62 61 60 59 59 59 58 57 56 54 52 50 49 49 49 49 48 48 48 48 49 49 49 50
89 90 92 93 95 95 95 95 95 95 95 94 94 92 90 89 87 85 82 80 78 76 73 71 69 68 66 64 63 61 61 60 61 60 59 59 58 57 55 52 51 50 50 50 50 49 49 49 50 50 50 51
90 91 92 92 94 95 95 96 96 96 95 95 95 93 91 90 88 86 84 81 79 77 74 72 70 69 67 65 64 62 62 62 61 62 61 60 60 59 57 56 53 52 51 51 51 51 51 51 51 51 52 52
86 90 93 94 94 95 95 96 95 96 96 96 95 94 92 91 89 87 85 83 80 78 75 73 71 70 68 66 65 63 63 63 62 63 62 61 61 61 59 58 56 55 53 52 52 53 52 52 53 53 53 53
82 84 89 93 95 95 95 96 96 97 97 97 97 96 94 92 91 88 86 84 82 79 76 74 72 71 69 68 66 65 64 64 64 64 64 63 62 62 61 60 59 57 56 55 54 54 54 54 54 55 55 55
87 87 86 88 92 95 96 96 97 98 98 98 98 97 96 94 92 90 88 85 83 81 78 75 73 72 71 69 67 66 65 65 66 65 65 65 63 63 63 61 60 60 59 58 57 56 56 56 56 57 57 57
82 87 89 90 91 93 95 96 97 98 99 99 99 99 97 95 93 91 89 86 84 82 79 76 74 73 72 70 69 67 66 66 67 66 66 66 64 64 64 63 62 61 61 61 60 60 59 58 58 59 59 59
76 80 84 88 91 93 94 95 96 98 99 100 100 99 97 95 94 92 90 87 85 83 81 78 76 74 73 71 70 69 68 67 68 67 66 66 66 65 65 65 64 63 63 63 63 63 62 61 61 61 61 61
78 79 80 83 88 92 94 95 96 97 98 99 99 99 97 96 94 93 91 88 86 84 82 80 78 76 74 73 72 70 69 68 69 68 67 67 67 66 66 66 66 65 65 65 65 65 65 64 63 63 63 63
78 80 82 84 86 89 91 93 95 97 98 98 99 98 97 96 94 93 92 89 87 86 84 81 79 77 75 74 73 72 71 70 70 69 69 68 68 68 68 68 68 68 67 67 67 67 67 66 66 65 65 64
79 81 82 84 86 88 90 92 94 96 97 98 98 98 98 96 95 94 92 91 89 88 86 83 81 79 77 76 75 73 72 71 71 71 70 70 70 70 70 70 70 70 69 69 69 69 69 68 68 68 67 67
80 82 84 86 87 87 89 91 93 95 96 97 98 98 98 97 95 94 93 92 90 89 87 85 82 80 78 77 76 74 73 72 72 72 72 72 72 72 72 72 72 72 72 71 71 71 71 70 70 70 70 70
79 83 87 89 89 87 88 89 91 93 95 96 97 98 97 97 96 94 93 92 91 90 88 86 84 82 80 79 77 76 75 74 73 74 74 74 74 74 74 74 74 74 74 73 73 73 73 73 73 73 73 73
82 84 85 87 88 89 90 90 89 89 91 94 95 96 96 95 95 94 93 92 91 90 89 87 86 83 81 80 79 77 76 76 75 75 76 76 75 75 75 75 75 76 76 76 75 75 75 76 76 76 76 76
85 85 84 86 88 90 93 93 89 87 87 90 93 94 94 93 93 92 92 91 90 90 89 89 87 85 83 81 80 79 78 77 77 77 77 77 77 77 77 77 77 78 78 78 78 78 78 78 78 78 79 79
87 86 85 87 88 90 92 92 90 87 86 87 88 90 91 91 91 91 91 90 90 90 90 89 88 87 85 83 82 81 80 79 79 78 78 78 78 78 78 79 79 79 80 80 80 80 80 80 80 81 82 81
88 87 88 89 89 89 90 91 90 88 87 86 85 86 87 88 89 89 90 90 90 90 91 90 90 88 87 85 84 83 82 81 80 80 79 79 80 80 80 80 80 81 81 81 82 82 83 82 82 83 84 82
89 88 89 90 89 89 90 91 91 89 88 87 85 83 83 83 85 87 89 89 90 91 91 91 91 90 88 87 86 84 83 82 82 82 81 81 81 81 81 81 82 83 84 83 83 84 85 85 85 85 85 84
90 90 91 90 90 90 91 91 92 91 90 87 85 83 81 81 83 85 87 89 90 91 91 91 91 91 90 88 87 86 85 84 84 84 83 82 82 82 82 83 84 86 86 85 85 86 87 87 87 86 86 86
Wind_Direction
243 244 244 244 243 244 245 246 247 247 248 249 251 252 253 254 256 257 258 260 261 263 264 266 267 269 270 272 273 274 275 276 277 274 271 269 266 263 261 259 259 259 260 261 262 263 265 266 267 268 269 271
243 243 244 244 244 244 245 246 246 247 248 249 250 252 253 254 256 257 258 259 261 262 264 265 267 268 270 271 272 273 274 275 274 271 268 266 264 262 260 259 259 259 260 261 262 264 265 266 267 268 269 271
242 243 244 244 244 244 245 246 247 247 248 249 250 252 253 254 255 257 258 259 261 262 263 265 266 268 269 270 271 272 273 273 272 268 265 265 263 261 260 259 259 259 259 261 263 264 265 267 267 269 270 271
242 242 243 243 243 244 245 246 247 248 248 249 250 251 253 254 255 256 257 259 260 262 263 264 265 267 268 269 270 271 271 271 269 265 263 264 262 261 260 259 259 259 260 261 263 265 267 267 268 270 271 272
242 242 242 242 243 244 245 246 247 248 248 249 250 251 253 254 255 256 257 258 259 261 262 263 264 265 266 267 268 269 269 268 267 264 262 262 261 260 259 259 259 259 259 261 263 265 267 268 269 271 272 273
241 241 241 241 242 243 244 245 247 248 248 249 250 251 252 253 254 255 256 258 259 260 261 262 263 264 265 266 266 267 267 266 266 263 260 261 261 260 259 259 258 258 259 260 262 265 267 268 269 271 272 273
240 240 240 241 242 242 243 245 246 247 248 249 249 251 252 253 254 255 256 257 258 259 260 261 261 262 263 264 264 265 265 265 265 263 261 260 261 260 259 259 259 259 259 260 262 264 266 267 268 270 271 273
239 239 240 240 241 241 242 243 245 247 247 248 249 250 251 252 253 254 255 256 257 257 258 259 260 260 261 262 262 263 263 264 264 264 262 259 260 261 260 259 259 259 259 260 261 263 265 266 267 269 270 271
239 239 240 240 241 241 242 243 244 246 247 248 248 249 250 251 252 253 254 255 256 256 257 258 258 259 259 259 260 261 262 263 263 263 263 261 259 260 260 260 260 260 260 260 261 263 264 265 267 268 269 270
239 240 240 241 241 241 241 242 243 245 246 247 248 248 250 251 251 252 253 254 255 255 256 256 257 257 257 258 258 259 260 261 262 263 264 263 260 260 261 260 260 260 260 260 261 262 264 265 266 267 268 269
239 239 240 241 242 242 242 242 243 244 245 246 247 248 249 250 250 251 252 253 253 254 254 255 255 256 256 256 256 257 258 260 261 262 263 264 262 260 260 261 261 261 261 261 261 262 263 265 266 267 268 269
239 238 240 240 241 242 242 242 243 244 245 246 246 247 248 249 250 250 251 251 252 253 253 254 254 254 254 255 255 255 257 258 260 262 263 264 264 262 261 261 262 262 261 262 262 262 263 264 266 267 268 269
238 238 238 239 240 241 241 242 242 243 244 245 246 246 247 248 248 249 250 250 251 252 252 253 253 253 253 253 253 254 255 257 259 260 262 263 264 263 262 261 262 262 262 262 263 263 264 265 266 267 268 269
237 237 237 238 239 240 240 241 241 242 243 244 245 245 246 247 247 248 249 249 250 250 251 251 252 252 252 252 252 253 254 255 257 259 260 262 264 264 264 263 262 263 263 263 263 264 264 265 266 267 268 269
239 237 237 237 238 239 240 240 241 242 242 243 244 245 245 246 246 247 248 248 249 249 250 250 251 251 251 252 252 252 253 254 255 257 259 260 262 264 265 264 264 263 263 264 264 264 264 265 266 267 268 269
239 238 238 237 238 238 239 240 240 241 242 243 243 244 244 245 245 246 246 247 248 248 249 249 250 250 251 251 251 251 251 253 254 256 258 259 261 263 264 265 265 264 264 264 264 264 265 265 266 267 268 269
239 239 238 238 238 238 238 239 240 241 242 242 243 243 243 243 244 244 245 246 246 247 248 248 249 249 250 250 250 250 250 251 253 254 256 258 259 261 263 264 265 266 265 265 265 265 265 265 266 267 268 269
241 240 240 239 239 238 238 238 239 240 241 242 242 242 242 242 243 243 244 245 245 246 247 247 248 249 249 249 250 250 249 250 252 253 254 256 258 260 262 264 265 266 267 267 266 266 266 266 266 267 268 269
242 241 240 240 240 239 238 238 239 239 240 241 242 242 242 242 242 243 244 244 245 246 246 246 247 248 249 249 249 249 249 250 251 252 253 255 257 258 261 263 264 265 266 267 268 267 267 267 267 268 268 269
242 242 240 240 240 239 238 238 239 239 240 241 241 242 242 242 242 243 243 244 244 245 246 246 247 248 248 249 249 249 249 249 250 252 253 254 256 258 260 262 263 265 266 267 268 268 269 269 269 269 270 270
240 242 241 239 239 239 238 238 239 239 240 240 241 242 242 242 242 243 243 243 244 245 245 246 246 247 248 248 249 249 250 249 250 251 252 254 255 257 258 260 262 263 265 266 267 268 269 269 270 271 271 272
236 240 241 239 238 238 238 238 238 239 239 240 241 241 242 242 242 242 242 243 243 244 244 245 245 246 247 248 249 249 250 250 250 251 252 253 254 255 257 259 260 262 263 264 265 267 268 269 270 271 272 272
232 236 239 240 239 238 238 238 238 238 238 239 240 241 241 241 241 241 241 242 242 243 244 244 245 246 246 247 248 249 249 250 250 251 251 252 253 254 256 257 259 260 261 262 264 265 267 268 269 270 271 271
232 234 237 239 239 239 238 238 238 238 238 239 239 240 240 240 240 240 240 241 242 243 244 244 244 245 246 247 247 248 249 249 250 250 251 251 252 253 254 256 257 259 260 261 262 264 265 267 268 268 269 269
233 234 236 238 240 241 240 239 239 239 239 239 239 240 240 240 240 240 240 240 241 242 243 244 244 244 245 246 247 248 249 249 249 250 250 251 251 252 254 255 256 258 259 260 261 263 264 265 266 266 267 267
231 234 236 238 241 242 242 241 239 239 240 240 240 240 240 240 241 241 241 241 241 242 243 244 244 244 245 246 247 248 248 249 249 250 250 251 251 252 253 254 255 257 258 259 261 262 262 263 264 265 265 266
229 232 234 236 238 240 242 242 241 240 241 241 240 241 241 241 242 242 241 241 242 242 243 244 245 245 245 246 247 247 248 249 249 250 250 251 252 252 253 254 255 256 257 259 260 261 261 262 263 264 265 265
229 231 233 234 236 238 241 243 243 242 242 242 241 241 242 242 242 242 242 242 242 242 243 244 245 245 245 245 246 247 248 249 250 250 251 251 252 252 253 254 255 256 257 258 259 260 261 262 263 264 264 266
229 231 233 235 236 237 240 242 244 243 242 242 241 241 241 242 242 242 242 242 241 242 242 243 244 245 245 245 246 247 248 249 250 251 251 252 252 253 253 254 255 256 257 258 259 260 261 262 262 263 265 266
230 232 234 236 237 237 239 242 244 244 243 242 242 241 241 242 242 242 242 242 241 241 242 243 244 245 245 245 246 247 248 249 250 251 251 252 252 253 253 254 255 256 257 258 259 260 261 262 263 263 264 265
231 232 235 237 238 238 239 241 244 245 245 245 244 243 243 243 243 242 242 242 241 241 242 242 243 244 245 245 246 246 247 248 249 250 251 252 252 253 253 254 254 255 257 257 258 260 261 262 262 263 265 266
Height
10655 10661 10666 10672 10678 10682 10683 10684 10685 10690 10695 10697 10699 10702 10704 10705 10707 10711 10713 10715 10717 10718 10720 10722 10723 10723 10724 10725 10726 10727 10727 10728 10730 10729 10728 10728 10728 10728 10729 10729 10730 10731 10732 10732 10733 10733 10734 10734 10734 10734 10734 10734
10647 10654 10658 10664 10671 10674 10675 10677 10679 10683 10688 10690 10693 10695 10698 10699 10702 10705 10707 10709 10711 10713 10715 10717 10718 10718 10719 10720 10721 10722 10722 10723 10725 10725 10723 10723 10723 10724 10724 10725 10726 10727 10727 10728 10728 10728 10729 10730 10729 10729 10729 10730
10640 10646 10650 10657 10662 10665 10668 10671 10673 10676 10681 10684 10687 10689 10692 10693 10696 10699 10701 10703 10705 10707 10709 10712 10713 10713 10714 10715 10716 10716 10717 10718 10719 10720 10719 10719 10719 10719 10719 10720 10721 10722 10723 10723 10723 10723 10724 10725 10724 10724 10724 10725
10633 10638 10642 10648 10653 10657 10663 10665 10666 10669 10674 10677 10680 10683 10685 10687 10690 10692 10695 10697 10699 10701 10703 10706 10707 10707 10709 10710 10710 10711 10712 10713 10714 10714 10714 10714 10714 10714 10715 10715 10716 10717 10718 10718 10718 10719 10719 10719 10719 10719 10719 10720
10625 10628 10632 10639 10646 10652 10657 10658 10659 10662 10667 10671 10674 10677 10678 10681 10684 10686 10689 10691 10693 10695 10697 10700 10702 10702 10703 10704 10705 10706 10706 10707 10708 10709 10709 10709 10710 10710 10710 10711 10712 10713 10713 10714 10714 10714 10714 10714 10714 10715 10714 10715
10614 10616 10622 10633 10640 10645 10650 10651 10652 10655 10660 10664 10667 10670 10672 10674 10678 10680 10683 10685 10687 10689 10691 10694 10696 10696 10697 10699 10700 10700 10701 10702 10702 10704 10705 10705 10705 10705 10706 10706 10707 10708 10709 10709 10709 10710 10709 10710 10710 10710 10709 10710
10602 10606 10616 10627 10633 10636 10642 10645 10645 10648 10653 10657 10660 10663 10665 10668 10671 10674 10677 10679 10681 10683 10685 10688 10689 10690 10692 10693 10694 10694 10696 10696 10697 10698 10699 10700 10700 10700 10701 10702 10702 10703 10704 10704 10705 10705 10705 10705 10706 10705 10705 10705
10591 10600 10611 10620 10624 10629 10635 10637 10638 10641 10645 10649 10653 10656 10658 10661 10664 10667 10670 10673 10675 10677 10679 10681 10683 10684 10686 10687 10688 10689 10690 10691 10691 10693 10694 10694 10695 10695 10696 10697 10697 10698 10699 10699 10700 10700 10700 10700 10701 10701 10701 10701
10587 10597 10607 10612 10616 10622 10627 10629 10632 10635 10637 10641 10646 10649 10652 10654 10657 10660 10663 10666 10668 10671 10673 10675 10677 10678 10679 10681 10682 10683 10684 10685 10686 10687 10688 10689 10690 10690 10691 10692 10692 10693 10694 10694 10695 10695 10695 10695 10696 10696 10696 10696
10582 10594 10601 10605 10610 10615 10618 10622 10625 10628 10630 10633 10638 10642 10645 10648 10650 10654 10656 10659 10661 10664 10667 10669 10671 10672 10673 10675 10676 10677 10679 10679 10680 10682 10682 10683 10684 10685 10686 10686 10687 10688 10688 10689 10690 10690 10690 10690 10691 10691 10691 10691
10575 10588 10594 10597 10601 10606 10610 10614 10618 10621 10623 10626 10630 10635 10638 10641 10644 10647 10649 10652 10654 10657 10660 10662 10664 10666 10667 10669 10670 10671 10673 10673 10674 10676 10677 10678 10679 10680 10680 10681 10682 10683 10683 10684 10684 10685 10685 10685 10685 10686 10686 10685
10569 10580 10584 10587 10592 10597 10601 10606 10611 10613 10615 10618 10623 10627 10630 10633 10636 10639 10642 10645 10647 10650 10653 10655 10657 10659 10661 10663 10664 10665 10667 10668 10669 10670 10671 10672 10673 10674 10675 10676 10676 10677 10678 10678 10678 10679 10679 10679 10680 10680 10680 10680
10561 10570 10572 10576 10582 10586 10591 10597 10602 10604 10607 10611 10614 10618 10622 10625 10628 10632 10635 10638 10640 10642 10645 10648 10650 10653 10655 10656 10658 10659 10660 10662 10663 10664 10665 10666 10667 10668 10669 10670 10671 10671 10672 10672 10673 10673 10673 10674 10674 10674 10674 10674
10552 10559 10562 10567 10572 10576 10582 10587 10591 10595 10599 10602 10605 10609 10613 10617 10620 10624 10627 10630 10633 10635 10638 10641 10643 10646 10648 10650 10652 10653 10654 10656 10657 10658 10659 10660 10661 10662 10663 10664 10665 10665 10666 10667 10667 10667 10667 10667 10668 10668 10668 10668
10545 10549 10553 10558 10562 10567 10573 10577 10582 10586 10590 10592 10595 10600 10604 10608 10612 10615 10619 10622 10625 10628 10631 10634 10636 10639 10641 10643 10645 10647 10648 10649 10651 10652 10653 10654 10655 10656 10657 10658 10658 10659 10660 10661 10661 10661 10661 10661 10661 10661 10662 10662
10535 10540 10544 10548 10552 10558 10563 10568 10573 10577 10580 10583 10586 10590 10595 10599 10603 10607 10610 10614 10617 10621 10624 10626 10629 10631 10634 10636 10638 10640 10641 10643 10644 10646 10647 10648 10649 10650 10651 10651 10652 10653 10654 10655 10655 10655 10655 10655 10655 10655 10655 10655
10527 10531 10535 10539 10543 10549 10553 10559 10564 10567 10570 10573 10576 10580 10585 10589 10593 10597 10601 10605 10610 10613 10616 10619 10622 10624 10627 10629 10631 10633 10635 10636 10638 10639 10641 10642 10643 10644 10644 10645 10646 10646 10647 10648 10649 10649 10648 10648 10648 10648 10648 10648
10519 10522 10527 10531 10534 10538 10543 10549 10554 10557 10561 10564 10567 10570 10575 10579 10584 10588 10592 10597 10602 10605 10609 10612 10615 10617 10619 10622 10624 10626 10628 10630 10631 10633 10634 10635 10637 10638 10638 10639 10639 10640 10641 10641 10642 10642 10642 10642 10642 10642 10641 10641
10511 10513 10519 10522 10525 10530 10535 10540 10544 10548 10551 10554 10557 10561 10565 10571 10575 10580 10584 10590 10594 10598 10601 10605 10607 10610 10612 10615 10617 10619 10621 10623 10624 10626 10628 10629 10630 10631 10632 10633 10633 10634 10634 10634 10634 10635 10635 10635 10635 10635 10635 10635
10503 10505 10510 10514 10517 10521 10527 10531 10535 10539 10541 10545 10549 10553 10558 10563 10568 10572 10577 10582 10586 10590 10594 10597 10600 10602 10605 10608 10610 10612 10614 10616 10617 10619 10621 10622 10623 10625 10625 10626 10626 10627 10627 10627 10628 10628 10628 10628 10628 10628 10628 10628
10496 10498 10502 10506 10508 10511 10517 10522 10526 10529 10533 10537 10541 10545 10550 10555 10560 10565 10569 10574 10578 10582 10586 10589 10592 10595 10598 10601 10602 10605 10607 10609 10610 10612 10614 10615 10617 10618 10619 10619 10620 10620 10620 10620 10621 10621 10621 10621 10621 10621 10621 10621
10490 10491 10494 10496 10498 10503 10508 10513 10516 10521 10525 10528 10532 10537 10541 10546 10552 10556 10561 10566 10570 10573 10577 10581 10584 10587 10591 10593 10595 10598 10600 10601 10603 10605 10607 10608 10610 10610 10612 10612 10613 10613 10613 10613 10614 10614 10614 10614 10614 10614 10614 10614
10483 10484 10485 10486 10490 10494 10499 10503 10507 10511 10515 10519 10523 10527 10532 10537 10543 10548 10553 10557 10561 10565 10569 10573 10576 10580 10583 10585 10587 10590 10592 10594 10596 10598 10599 10601 10602 10603 10604 10605 10605 10605 10606 10606 10606 10606 10606 10606 10606 10607 10606 10606
10475 10477 10477 10477 10480 10485 10490 10493 10497 10501 10506 10510 10514 10518 10522 10528 10533 10538 10543 10548 10553 10557 10561 10565 10568 10572 10575 10576 10579 10582 10584 10586 10589 10591 10591 10592 10594 10595 10596 10597 10598 10598 10598 10599 10599 10598 10599 10599 10599 10598 10598 10598
10467 10469 10469 10470 10474 10478 10482 10486 10489 10493 10498 10503 10505 10509 10514 10519 10524 10530 10535 10540 10545 10549 10553 10557 10559 10563 10567 10569 10571 10574 10577 10578 10580 10582 10583 10584 10586 10587 10588 10589 10590 10590 10590 10591 10591 10591 10592 10591 10590 10589 10590 10589
10457 10460 10463 10466 10469 10471 10472 10476 10481 10486 10491 10495 10498 10501 10507 10512 10518 10523 10528 10534 10538 10542 10545 10548 10551 10556 10560 10561 10563 10566 10568 10570 10571 10574 10575 10576 10578 10579 10580 10581 10581 10581 10581 10583 10583 10583 10583 10582 10581 10582 10581 10580
10448 10453 10457 10459 10461 10462 10463 10467 10473 10480 10484 10487 10491 10495 10501 10507 10512 10517 10522 10527 10531 10535 10537 10540 10543 10547 10552 10553 10554 10557 10559 10561 10562 10565 10566 10567 10569 10571 10572 10572 10573 10573 10573 10575 10575 10575 10574 10573 10574 10574 10571 10571
10442 10447 10450 10451 10453 10455 10457 10460 10466 10472 10476 10479 10484 10490 10495 10500 10505 10510 10515 10519 10523 10526 10529 10532 10534 10538 10543 10545 10546 10548 10551 10552 10553 10556 10558 10559 10560 10562 10563 10564 10564 10564 10565 10566 10566 10566 10565 10565 10566 10565 10562 10564
10436 10440 10442 10444 10447 10450 10452 10454 10458 10463 10468 10472 10477 10483 10488 10493 10497 10502 10506 10510 10514 10517 10520 10523 10526 10529 10533 10536 10538 10540 10543 10545 10545 10547 10549 10551 10552 10554 10555 10557 10557 10556 10556 10558 10558 10557 10556 10557 10557 10555 10554 10557
10430 10434 10435 10437 10442 10445 10447 10449 10451 10456 10460 10465 10471 10476 10482 10487 10490 10494 10497 10501 10505 10507 10511 10514 10517 10520 10523 10527 10529 10531 10534 10536 10536 10537 10540 10542 10544 10545 10547 10549 10549 10547 10546 10549 10550 10548 10547 10548 10548 10548 10547 10549
10425 10428 10430 10432 10436 10439 10442 10444 10446 10449 10453 10459 10465 10471 10477 10480 10482 10486 10489 10492 10495 10498 10502 10505 10508 10510 10514 10517 10519 10522 10524 10526 10526 10528 10530 10533 10535 10536 10537 10539 10540 10537 10536 10540 10541 10539 10539 10539 10539 10540 10540 10540